#timestamp,LO_Frequency,Hit 
1502424015.1,286047002.2,N
1502424016.0,286047002.2,N
1502424035.8,286047001.5,N
1502424055.6,286047000.8,N
1502424075.4,286046996.5,N
1502424095.3,286046999.1,N
1502424115.1,286046998.7,N
1502424135.8,286046999.0,N
1502424155.7,286046999.5,N
1502424175.5,286046999.1,N
1502424195.3,286046999.0,N
1502424215.2,286046998.2,N
1502424235.9,286047000.7,N
1502424255.7,286046998.1,N
1502424275.6,286047000.0,N
1502424295.4,286047002.6,N
1502424315.2,286047002.5,N
1502424335.1,286047003.6,N
1502424336.0,286047003.6,N
1502424355.8,286047003.4,N
1502424375.6,286047004.2,N
1502424395.5,286047002.6,N
1502424415.3,286047001.6,N
1502424435.1,286047000.1,N
1502424455.8,286047001.8,N
1502424475.7,286047001.4,N
1502424495.5,286047002.0,N
1502424515.3,286047003.7,N
1502424535.2,286047001.7,N
1502424555.9,286047001.5,N
1502424575.7,286047005.3,N
1502424595.6,286047005.6,N
1502424615.4,286047005.5,N
1502424635.2,286047006.0,N
1502424655.1,286047007.2,N
1502424656.0,286047007.2,N
1502424675.8,286047005.4,N
1502424695.6,286047006.6,N
1502424715.5,286047008.7,P
1502424735.3,286047004.6,N
1502424755.1,286047007.6,P
1502424775.9,286047002.1,N
1502424795.7,286047002.7,N
1502424815.5,286046999.7,N
1502424835.4,286046999.9,N
1502424855.2,286047002.8,N
1502424875.0,286047000.3,N
1502424875.9,286047000.3,N
1502424895.7,286047004.0,N
1502424915.6,286047003.7,N
1502424935.4,286047003.2,N
1502424955.2,286047003.2,N
1502424975.1,286047001.9,N
1502424976.0,286047001.9,N
1502424995.8,286047000.0,N
1502425015.6,286047004.0,N
1502425035.5,286046999.7,N
1502425055.3,286046999.9,N
1502425075.1,286047001.2,N
1502425095.9,286047000.4,N
1502425115.7,286046998.7,N
1502425135.5,286046997.2,N
1502425155.4,286046999.0,N
1502425175.2,286046994.9,N
1502425195.0,286046995.5,N
1502425195.9,286046995.5,N
1502425215.8,286046997.0,N
1502425235.6,286046998.9,N
1502425255.4,286047000.1,N
1502425275.3,286047001.2,N
1502425295.1,286047000.4,N
1502425296.0,286047000.4,N
1502425315.8,286046998.4,N
1502425335.7,286046998.4,N
1502425355.5,286046999.9,N
1502425375.3,286046999.3,N
1502425395.1,286047000.1,N
1502425415.9,286047001.5,N
1502425435.7,286047000.3,N
1502425455.5,286046996.5,N
1502425475.4,286047000.5,N
1502425495.2,286046999.0,N
1502425515.0,286046997.3,N
1502425515.9,286046997.3,N
1502425535.8,286046995.2,N
1502425555.6,286046994.9,N
1502425575.4,286046996.5,N
1502425595.3,286046997.7,N
1502425615.1,286046996.6,N
1502425616.0,286046996.6,N
1502425635.8,286046999.1,N
1502425655.7,286047000.8,N
1502425675.5,286047000.0,N
1502425695.3,286047000.6,N
1502425715.2,286047002.6,N
1502425735.9,286047003.5,N
1502425755.7,286047001.5,N
1502425775.5,286047000.5,N
1502425795.4,286047000.7,N
1502425815.2,286046998.4,N
1502425835.0,286047000.9,N
1502425835.9,286047000.9,N
1502425855.8,286047000.5,N
1502425875.6,286047001.2,N
1502425895.4,286046998.9,N
1502425915.3,286046998.1,N
1502425935.1,286047001.0,N
1502425936.0,286047001.0,N
1502425955.8,286046998.4,N
1502425975.7,286047000.6,N
1502425995.5,286047002.1,N
1502426015.3,286047001.5,N
1502426035.2,286047002.3,N
1502426055.9,286047002.7,N
1502426075.7,286047002.8,N
1502426095.6,286047001.7,N
1502426115.4,286047000.0,N
1502426135.2,286047000.7,N
1502426155.0,286046998.6,N
1502426156.0,286046998.6,N
1502426175.8,286046998.6,N
1502426195.6,286046998.4,N
1502426215.4,286047000.5,N
1502426235.3,286046998.2,N
1502426255.1,286047000.6,N
1502426275.8,286047000.6,N
1502426295.7,286047001.2,N
1502426315.5,286047000.8,N
1502426335.3,286047002.2,N
1502426355.2,286047003.3,N
1502426375.9,286047003.5,N
1502426395.7,286047004.4,N
1502426415.6,286047005.4,P
1502426435.4,286047007.4,P
1502426455.2,286047007.5,N
1502426475.1,286047006.1,N
1502426476.0,286047006.1,N
1502426495.8,286047009.2,P
1502426515.6,286047002.8,N
1502426535.5,286047001.9,N
1502426555.3,286047004.7,N
1502426575.1,286047005.7,N
1502426595.9,286047003.3,N
1502426615.7,286047001.4,N
1502426635.5,286047002.9,N
1502426655.4,286047007.4,P
1502426675.2,286047001.5,N
1502426695.0,286047004.3,N
1502426695.9,286047004.3,N
1502426715.8,286047005.7,P
1502426735.6,286047004.0,P
1502426755.4,286047002.4,P
1502426775.3,286047002.5,N
1502426795.1,286046998.7,N
1502426815.8,286046999.2,N
1502426835.7,286046994.2,N
1502426855.5,286046992.3,N
1502426875.3,286046992.5,N
1502426895.2,286046992.5,N
1502426915.9,286046990.3,N
1502426935.7,286046991.0,N
1502426955.6,286046989.6,N
1502426975.4,286046991.5,N
1502426995.2,286046990.3,N
1502427015.0,286046990.6,N
1502427016.0,286046990.6,N
1502427035.8,286046988.7,N
1502427055.6,286046987.3,N
1502427075.4,286046986.1,N
1502427095.3,286046987.0,N
1502427115.1,286046988.8,N
1502427135.8,286046990.3,N
1502427155.7,286046991.6,N
1502427175.5,286046988.7,N
1502427195.3,286046989.5,N
1502427215.2,286046991.3,N
1502427235.9,286046988.6,N
1502427255.7,286046987.0,N
1502427275.6,286046987.6,N
1502427295.4,286046989.8,N
1502427315.2,286046987.0,N
1502427335.1,286046985.8,P
1502427336.0,286046985.8,P
1502427355.8,286046995.2,N
1502427375.6,286046995.3,N
1502427395.5,286046997.7,N
1502427415.3,286046999.0,N
1502427435.1,286046998.6,N
1502427455.8,286046997.7,N
1502427475.7,286046995.6,N
1502427495.5,286046997.3,N
1502427515.3,286046995.9,N
1502427535.2,286046996.1,N
1502427555.9,286046995.4,N
1502427575.7,286047000.8,N
1502427595.6,286047000.3,N
